Weather History for Richmond, VA

Change the Weather History Date:

Tuesday, July 23, 2013

  Actual Average Record
Temperature  
Mean Temperature 83 °F 79 °F  
Max Temperature 91 °F 90 °F 103 °F (1952)
Min Temperature 74 °F 69 °F 55 °F (1974)
Degree Days  
Heating Degree Days 0 0  
Month to date heating degree days 0 0  
Since 1 June heating degree days 0 7  
Since 1 July heating degree days 0 0  
Cooling Degree Days 18 14  
Month to date cooling degree days 392 331  
Year to date cooling degree days 963 807  
Since 1 June cooling degree days 750 646  
Growing Degree Days 32 (Base 50)    
Moisture  
Dew Point 72 °F    
Average Humidity 71    
Maximum Humidity 94    
Minimum Humidity 47    
Precipitation  
Precipitation 0.00 in 0.16 in 4.53 in (1946)
Month to date precipitation 4.90 3.29  
Year to date precipitation 30.28 24.11  
Snow  
Snow 0.00 in 0.00 in 0.00 in (2002)
Month to date snowfall 0.0 0.0  
Since 1 July snowfall 0.0 0.0  
Snow Depth 0.00 in    
Sea Level Pressure  
Sea Level Pressure 29.74 in    
Wind  
Wind Speed 8 mph (SW)    
Max Wind Speed 16 mph    
Max Gust Speed 20 mph    
Visibility 10 miles    
Events      
T = Trace of Precipitation, MM = Missing Value Source: NWS Daily Summary

Daily Weather History Graph

Daily Weather History Graph

Search for Another Location

Airport:

Trip Planner

Search our weather history database for the weather conditions in past years. The results will help you decide how hot, cold, wet, or windy it might be!

Date:

Astronomy

Jul. 23, 2013 Rise Set
Actual Time 6:06 AM EDT 8:24 PM EDT
Civil Twilight 5:36 AM EDT 8:54 PM EDT
Nautical Twilight 5:00 AM EDT 9:30 PM EDT
Astronomical Twilight 4:19 AM EDT 10:10 PM EDT
Moon 8:55 PM EDT (7/23) 7:09 AM EDT (7/23)
Length of Visible Light 15h 17m
Length of Day
14h 18m
Full, 99% of the Moon is Illuminated
Jul 23
Full
Jul 29
Last Quarter
Aug 6
New
Aug 14
First Quarter
Aug 20
Full

Hourly Weather History & Observations

Time (EDT) Temp. Heat Index Dew Point Humidity Pressure Visibility Wind Dir Wind Speed Gust Speed Precip Events Conditions
12:54 AM 77.0 °F - 75.0 °F 94% 29.80 in 10.0 mi SSW 8.1 mph - N/A   Partly Cloudy
1:54 AM 77.0 °F - 73.9 °F 90% 29.78 in 9.0 mi SSW 8.1 mph - N/A   Clear
2:54 AM 75.9 °F - 73.0 °F 91% 29.76 in 9.0 mi South 6.9 mph - N/A   Clear
3:54 AM 75.9 °F - 73.0 °F 91% 29.75 in 10.0 mi SSW 5.8 mph - N/A   Clear
4:54 AM 75.0 °F - 72.0 °F 90% 29.74 in 8.0 mi South 6.9 mph - N/A   Clear
5:54 AM 75.0 °F - 72.0 °F 90% 29.75 in 7.0 mi SSW 6.9 mph - N/A   Scattered Clouds
6:54 AM 75.9 °F - 73.0 °F 91% 29.76 in 7.0 mi SSW 8.1 mph - N/A   Scattered Clouds
7:54 AM 79.0 °F - 73.9 °F 84% 29.76 in 10.0 mi SW 11.5 mph - N/A   Mostly Cloudy
8:54 AM 79.0 °F - 73.0 °F 82% 29.76 in 10.0 mi WSW 10.4 mph - N/A   Mostly Cloudy
9:54 AM 82.9 °F 88.8 °F 73.0 °F 72% 29.75 in 10.0 mi West 8.1 mph - N/A   Mostly Cloudy
10:54 AM 86.0 °F 92.2 °F 72.0 °F 63% 29.74 in 10.0 mi WSW 8.1 mph - N/A   Mostly Cloudy
11:54 AM 87.1 °F 92.0 °F 70.0 °F 57% 29.74 in 10.0 mi West 9.2 mph - N/A   Mostly Cloudy
12:54 PM 88.0 °F 92.9 °F 70.0 °F 55% 29.74 in 10.0 mi Variable 6.9 mph - N/A   Mostly Cloudy
1:54 PM 90.0 °F 94.5 °F 69.1 °F 50% 29.73 in 10.0 mi WSW 11.5 mph - N/A   Mostly Cloudy
2:54 PM 91.0 °F 96.6 °F 70.0 °F 50% 29.72 in 10.0 mi West 12.7 mph - N/A   Mostly Cloudy
3:54 PM 91.0 °F 97.6 °F 71.1 °F 52% 29.70 in 10.0 mi West 9.2 mph - N/A   Mostly Cloudy
4:54 PM 91.0 °F 95.2 °F 68.0 °F 47% 29.69 in 10.0 mi West 13.8 mph - N/A   Mostly Cloudy
5:54 PM 90.0 °F 94.5 °F 69.1 °F 50% 29.69 in 10.0 mi West 12.7 mph - N/A   Mostly Cloudy
6:54 PM 89.1 °F 93.7 °F 69.1 °F 52% 29.69 in 10.0 mi West 10.4 mph - N/A   Mostly Cloudy
7:54 PM 87.1 °F 92.0 °F 70.0 °F 57% 29.70 in 10.0 mi WSW 8.1 mph - N/A   Scattered Clouds
8:54 PM 84.9 °F 90.1 °F 71.1 °F 63% 29.71 in 10.0 mi WSW 5.8 mph - N/A   Scattered Clouds
9:54 PM 78.1 °F - 73.0 °F 84% 29.73 in 10.0 mi South 5.8 mph - N/A   Scattered Clouds
10:54 PM 79.0 °F - 73.0 °F 82% 29.74 in 10.0 mi South 4.6 mph - N/A   Scattered Clouds
11:54 PM 77.0 °F - 73.0 °F 88% 29.74 in 10.0 mi SSW 4.6 mph - N/A   Partly Cloudy